Flag for India Weather past 2 weeks in Chhapra, Bihar, India

Now
82 °F

Passing clouds.


Feels Like: 91 °F
Forecast: 73 / 94 °F
Wind: 5 mph from Northeast

Location: Patna Airport

Current Time: Sep 30, 2014 at 8:03:28 PM

Latest Report: Sep 30, 2014 at 7:20 PM


Visibility: 3 mi

Pressure: 29.80 "Hg

Humidity: 84%

Dew point: 77 °F

Location of ChhapraLocation

Historic Weather in Chhapra — Graph

°F

Chhapra temperature yesterday

Maximum temperature yesterday: 90 °F (at 10:20 AM)
Minimum temperature yesterday: 79 °F (at 5:20 AM)
Average temperature yesterday: 83 °F

Past Weeks' High & Low Weather Summary

 TemperatureHumidityPressure
High95 °F (Sep 18, 1:20 PM)100% (Sep 19, 5:20 AM)29.89 "Hg (Sep 19, 5:20 AM)
Low75 °F (Sep 27, 5:20 AM)59% (Sep 26, 1:20 PM)29.50 "Hg (Sep 16, 3:20 PM)
Average85 °F81%29.68 "Hg
* Reported Sep 15 6:20 PM — Sep 30 6:20 PM, Chhapra, Weather by CustomWeather, © 2014

Note: Actual official high and low records may vary slightly from our data, if they occured in-between our weather recording intervals... More about our weather records

Advertising

Chhapra weather history for previous 24 hours

 ConditionsComfort  
Time TempWeatherWind HumidityBarometerVisibility
6:20 PM
Sep 30
84 °FPassing clouds.5 mph79%29.77 "Hg3 mi
5:20 PM86 °FScattered clouds.2 mph75%29.77 "Hg3 mi
4:20 PM88 °FScattered clouds.5 mph70%29.77 "Hg3 mi
3:20 PM88 °FScattered clouds.7 mph70%29.77 "Hg3 mi
2:20 PM91 °FBroken clouds.7 mph63%29.80 "Hg3 mi
1:20 PM90 °FScattered clouds.5 mph67%29.83 "Hg3 mi
12:20 PM90 °FScattered clouds.2 mph67%29.86 "Hg2 mi
11:20 AM88 °FScattered clouds.2 mph70%29.89 "Hg2 mi
10:20 AM86 °FScattered clouds.2 mph75%29.89 "Hg2 mi
9:20 AM84 °FHaze.3 mph79%29.89 "Hg1 mi
8:20 AM82 °FHaze.2 mph84%29.89 "Hg1 mi
7:20 AM81 °FHaze.No wind89%29.86 "Hg1 mi
6:20 AM79 °FFog.3 mph94%29.86 "Hg1 mi
5:20 AM77 °FFog.No wind89%29.83 "Hg1 mi
9:20 PM
Sep 29
79 °FPartly cloudy.2 mph89%29.86 "Hg2 mi
8:20 PM79 °FPartly cloudy.2 mph89%29.83 "Hg2 mi
Weather by CustomWeather, © 2014

See weather overviewHow to use our weather pages